Wind_Speed
37 36 35 34 33 33 33 32 31 30 30 30 29 28 28 28 28 28 27 27 26 26 25 25 24 24 23 22 22 21 21 20 19 18 17 17 16 16 16 16 15 14 13
39 39 38 37 36 35 35 35 35 34 33 33 32 31 31 30 30 29 29 29 29 28 28 27 27 26 26 25 24 24 23 23 22 22 21 20 19 18 18 18 17 17 16
41 41 40 39 39 39 38 37 37 37 36 36 36 34 33 33 32 32 31 31 31 31 31 30 29 29 28 28 27 27 26 26 25 24 24 23 22 21 20 20 19 19 18
43 43 42 42 41 41 41 40 39 39 39 39 38 38 37 36 35 34 34 34 34 34 33 33 32 31 31 30 30 29 29 29 28 27 26 25 24 24 23 22 21 21 20
44 44 44 44 44 43 43 43 42 41 41 41 40 40 40 39 38 38 37 36 36 36 36 36 35 34 34 33 32 32 31 31 31 30 29 28 27 26 25 24 23 23 22
45 45 45 46 46 46 45 45 44 43 43 43 43 43 42 41 41 41 40 40 39 39 38 38 38 37 37 36 35 35 34 33 33 33 32 30 29 28 28 27 25 25 24
46 46 46 47 47 47 47 47 47 46 45 45 45 45 45 44 44 44 43 42 42 41 41 41 41 40 40 39 38 38 37 37 35 35 34 33 32 31 30 29 28 27 27
47 47 48 48 49 49 49 49 49 49 48 47 47 48 47 47 47 46 46 46 45 45 44 43 43 43 43 42 41 40 40 39 38 37 37 36 34 33 33 32 31 30 29
47 47 48 48 49 49 50 50 50 50 50 49 50 49 49 49 49 49 49 49 48 48 47 46 46 45 45 45 44 43 42 42 41 39 39 39 37 36 35 34 34 33 32
48 48 48 49 49 50 50 50 51 51 51 51 52 51 52 52 52 51 50 50 50 50 50 50 49 48 48 47 47 46 45 44 43 42 41 41 40 39 38 37 37 36 35
48 48 49 49 50 51 51 52 52 52 52 53 53 53 52 53 53 52 51 51 51 51 51 51 51 51 50 49 49 48 47 46 46 45 44 43 43 42 41 40 39 38 37
48 48 49 50 50 51 52 52 52 52 53 53 54 54 53 53 53 53 53 52 51 52 52 52 52 52 52 51 50 50 49 48 48 47 47 47 46 45 43 43 42 41 40
48 49 50 51 51 52 53 53 53 53 53 53 53 53 54 54 53 54 53 52 52 52 52 52 52 52 52 52 52 52 51 51 50 49 48 48 48 48 46 45 44 43 42
48 49 50 51 51 52 53 54 54 54 54 53 53 53 53 54 54 54 54 53 54 54 53 52 53 53 53 54 54 54 53 52 52 51 50 50 50 50 49 47 47 46 45
48 49 50 51 52 53 54 55 55 55 54 54 54 54 54 54 55 55 55 55 54 54 54 53 53 54 55 55 54 54 55 54 53 52 51 51 51 52 51 50 49 48 47
48 49 49 51 52 53 54 55 55 55 56 55 55 55 56 56 56 57 57 57 56 56 54 53 54 55 55 55 55 54 55 55 54 53 53 52 52 53 53 52 51 50 49
49 50 50 50 51 52 54 55 54 55 55 56 56 56 57 57 58 58 58 58 58 58 57 55 56 57 57 57 57 56 56 56 56 55 55 54 54 54 54 54 53 52 51
49 50 51 52 52 52 53 55 55 55 56 56 56 57 57 57 58 58 59 58 58 59 59 58 57 58 58 58 58 58 58 58 58 57 57 56 56 56 56 56 55 54 53
49 50 50 51 52 53 53 54 53 55 55 55 56 57 58 57 57 58 59 59 59 59 59 58 57 58 59 59 59 59 59 59 60 60 60 59 59 59 59 59 58 56 56
48 49 51 51 52 52 52 53 54 55 57 57 57 58 58 58 58 58 59 60 60 59 59 58 57 57 58 59 59 59 59 58 59 60 61 61 60 60 60 60 59 58 57
47 48 50 51 52 53 53 53 55 56 56 58 58 58 59 58 58 58 58 59 60 59 59 59 59 59 58 58 59 59 59 58 58 59 60 61 61 60 60 59 59 58 57
48 49 50 51 51 53 54 54 56 57 57 58 59 58 58 58 58 58 59 60 59 59 58 59 58 58 58 58 59 60 60 60 59 59 61 61 62 61 60 60 59 58 57
48 49 50 51 52 52 53 54 55 56 57 57 58 59 59 58 58 58 58 59 59 59 59 59 59 59 58 59 60 60 61 60 60 59 60 61 61 60 59 58 57 57 57
48 49 50 51 52 52 52 54 55 55 55 56 56 57 57 58 57 57 58 58 58 58 59 59 59 59 59 59 60 60 61 61 61 61 60 60 60 60 59 58 57 56 58
48 49 49 50 51 51 51 52 53 53 53 53 54 55 56 56 57 57 58 58 58 58 59 60 60 60 60 60 60 61 61 61 61 60 60 60 60 60 60 59 57 57 58
47 48 48 48 49 50 51 52 52 52 52 53 53 54 54 55 56 57 57 57 57 58 59 60 60 60 60 60 61 60 60 61 60 59 59 60 60 61 61 59 58 57 58
Wind_Direction
255 255 254 253 253 254 254 254 255 255 256 256 257 256 256 257 256 255 255 255 255 255 255 255 256 257 258 259 258 257 256 256 257 258 257 256 256 257 254 255 258 260 262
254 254 254 253 253 254 255 254 255 255 255 256 256 257 256 256 256 256 255 255 255 255 255 256 256 257 258 258 259 258 257 256 257 258 259 258 257 258 258 257 258 260 262
255 254 254 254 254 254 255 255 255 256 256 256 257 257 256 256 256 255 255 255 255 255 256 256 256 257 257 258 258 258 258 257 257 257 258 259 258 258 259 258 258 260 262
256 254 254 254 254 255 255 255 255 256 256 257 257 257 256 255 256 256 255 255 255 255 256 256 256 256 257 257 258 258 257 257 257 257 257 258 257 258 258 259 258 259 261
256 255 254 254 254 254 255 256 256 256 256 256 257 257 257 256 255 255 255 255 255 255 255 255 256 256 257 257 257 257 257 257 257 257 257 257 257 257 257 258 258 259 260
257 256 255 254 254 255 255 256 256 256 256 256 256 257 257 257 255 255 256 256 255 255 255 255 255 256 257 257 257 257 256 257 256 256 256 256 256 256 256 257 258 259 260
258 257 256 254 254 255 255 255 256 256 256 256 256 256 256 256 256 255 256 256 256 256 256 256 255 256 256 257 257 256 255 255 256 255 255 255 254 254 255 256 256 258 260
258 257 256 255 254 254 255 255 255 256 257 257 257 257 256 256 257 256 256 257 257 257 257 256 256 256 256 256 256 256 256 255 255 255 254 254 253 252 253 254 255 257 259
258 258 257 255 254 254 255 255 256 256 256 257 257 257 256 257 257 256 257 257 257 257 257 256 256 256 256 255 255 255 255 254 254 254 253 252 252 252 252 253 255 256 257
258 258 257 256 255 255 255 255 255 256 256 257 257 257 257 257 257 257 257 258 258 257 257 257 257 256 256 255 255 254 254 254 253 253 253 252 252 251 251 252 254 255 256
258 257 256 255 256 256 256 255 255 256 257 257 257 257 257 258 258 258 258 258 257 257 257 257 256 256 255 254 254 253 253 253 253 253 253 252 251 251 252 252 253 254 255
258 256 256 255 255 256 256 256 256 256 257 257 257 257 257 258 259 258 258 257 257 256 256 256 256 255 255 254 253 253 253 253 253 253 253 252 251 250 251 252 252 253 255
258 258 257 256 257 257 256 257 257 257 257 257 257 257 257 257 258 257 257 257 256 256 255 255 255 255 254 254 253 253 253 253 253 252 252 252 251 251 250 252 252 253 255
259 258 258 256 257 257 257 257 257 257 257 257 256 256 257 257 257 257 257 257 257 256 255 255 254 254 253 254 254 253 253 253 253 253 252 252 252 251 251 252 251 252 254
260 260 259 258 258 258 258 258 258 257 257 257 256 256 257 257 258 257 258 257 258 257 255 254 254 254 254 254 254 253 253 252 253 253 252 252 252 252 252 252 252 252 253
262 261 260 258 259 259 259 259 258 257 256 256 256 256 256 257 258 258 258 258 258 258 256 255 254 254 254 254 254 254 252 252 251 252 252 253 252 251 252 252 252 252 253
263 262 262 261 261 261 260 259 258 257 256 256 256 256 257 257 257 257 258 258 258 257 257 255 254 254 254 254 254 254 253 252 252 251 252 253 253 252 252 253 252 252 253
265 264 262 263 262 262 261 260 259 258 257 256 256 257 257 258 258 257 257 257 258 257 258 256 255 254 255 254 254 255 255 253 252 252 252 253 253 252 252 253 252 252 252
266 265 264 263 263 262 261 260 260 258 258 257 257 258 258 258 258 258 257 257 257 257 257 257 256 255 255 255 255 255 255 254 253 252 252 252 253 253 251 252 253 253 253
266 266 265 264 263 263 262 262 262 260 259 258 259 259 259 258 258 258 257 256 256 256 256 256 256 255 255 255 255 255 255 255 254 253 253 252 252 252 251 251 252 253 253
267 266 266 264 264 263 263 263 263 262 261 260 259 259 258 258 257 257 256 255 255 255 255 256 256 256 255 255 255 254 254 254 255 255 253 252 252 251 251 250 250 251 252
268 268 267 266 265 264 264 264 264 262 262 261 260 260 259 258 257 256 255 255 255 254 255 255 255 256 256 255 255 254 254 254 255 255 254 252 251 251 250 250 250 251 252
268 268 267 267 265 265 265 265 265 264 263 263 262 260 259 258 257 256 255 255 254 254 255 255 255 256 256 255 255 254 254 254 254 254 253 251 250 250 249 249 249 250 251
269 269 268 267 266 265 265 266 265 264 264 263 262 260 259 257 256 256 256 255 255 255 254 255 255 256 256 256 256 256 254 254 254 253 252 251 250 249 249 249 249 250 251
270 269 270 268 266 265 265 266 266 265 264 263 262 261 260 258 257 257 257 257 256 256 255 255 255 256 256 256 257 256 255 255 254 254 253 252 249 248 248 249 249 250 251
271 269 270 269 268 267 266 266 267 266 264 263 262 261 261 259 258 257 258 258 257 256 256 256 256 256 256 256 256 255 255 254 254 253 252 251 249 248 247 248 249 250 251
Height
5790 5791 5793 5794 5796 5797 5799 5800 5801 5802 5804 5805 5805 5806 5807 5809 5810 5811 5812 5812 5813 5814 5815 5816 5817 5818 5819 5820 5820 5821 5822 5823 5823 5824 5824 5825 5825 5826 5826 5826 5827 5827 5827
5780 5782 5784 5786 5787 5789 5790 5792 5793 5795 5796 5797 5798 5799 5800 5801 5802 5804 5805 5806 5807 5808 5809 5810 5811 5812 5813 5814 5815 5816 5817 5818 5819 5819 5820 5821 5821 5822 5822 5823 5823 5823 5823
5770 5772 5774 5776 5778 5780 5782 5783 5785 5786 5788 5789 5790 5792 5793 5794 5795 5796 5797 5798 5799 5801 5802 5803 5805 5806 5807 5808 5809 5810 5811 5812 5813 5814 5815 5816 5817 5817 5818 5818 5819 5819 5819
5759 5761 5763 5766 5768 5769 5772 5773 5775 5777 5778 5780 5781 5783 5784 5786 5786 5787 5789 5790 5791 5793 5794 5796 5797 5798 5799 5800 5801 5803 5804 5805 5807 5808 5809 5810 5811 5812 5813 5813 5814 5814 5815
5747 5750 5752 5754 5756 5759 5761 5763 5765 5766 5768 5770 5772 5773 5775 5776 5777 5778 5780 5781 5783 5784 5786 5787 5789 5790 5791 5793 5794 5795 5796 5797 5799 5801 5802 5803 5805 5806 5807 5808 5808 5809 5809
5735 5737 5740 5742 5744 5747 5749 5751 5753 5755 5757 5759 5761 5763 5764 5766 5767 5769 5770 5771 5773 5774 5776 5778 5779 5781 5782 5784 5785 5786 5788 5789 5791 5792 5794 5796 5797 5799 5800 5801 5802 5803 5804
5722 5724 5727 5729 5732 5735 5737 5739 5741 5744 5745 5747 5749 5751 5753 5755 5756 5758 5759 5761 5762 5764 5766 5767 5769 5771 5772 5774 5775 5777 5778 5780 5782 5784 5786 5788 5790 5791 5793 5794 5795 5797 5797
5709 5711 5713 5716 5719 5722 5724 5727 5729 5731 5733 5735 5737 5739 5741 5744 5745 5746 5748 5749 5751 5753 5754 5756 5758 5760 5762 5763 5765 5766 5768 5770 5772 5774 5776 5778 5781 5783 5784 5786 5788 5789 5790
5696 5698 5700 5703 5705 5708 5711 5713 5716 5718 5720 5722 5723 5726 5728 5730 5733 5735 5736 5737 5738 5740 5742 5744 5746 5748 5750 5752 5754 5755 5757 5759 5762 5764 5766 5768 5771 5773 5775 5777 5779 5781 5782
5684 5685 5687 5690 5693 5695 5698 5700 5702 5704 5707 5709 5710 5712 5714 5716 5718 5722 5724 5724 5725 5727 5729 5731 5733 5735 5737 5739 5741 5743 5745 5748 5750 5753 5755 5758 5760 5763 5765 5768 5770 5772 5773
5671 5673 5674 5676 5679 5682 5684 5686 5688 5690 5692 5694 5696 5698 5699 5701 5702 5706 5709 5711 5712 5713 5715 5717 5719 5721 5724 5726 5728 5731 5733 5736 5738 5741 5744 5747 5749 5752 5755 5757 5760 5762 5764
5658 5660 5661 5663 5665 5667 5670 5671 5674 5676 5678 5679 5681 5683 5684 5686 5688 5690 5693 5696 5698 5700 5701 5703 5705 5707 5709 5712 5715 5717 5720 5723 5726 5728 5731 5734 5737 5740 5743 5746 5749 5751 5753
5646 5648 5648 5650 5651 5653 5655 5657 5659 5661 5663 5665 5666 5668 5670 5672 5673 5675 5678 5680 5682 5685 5687 5689 5691 5693 5695 5698 5701 5703 5707 5710 5712 5715 5718 5721 5724 5727 5731 5734 5737 5740 5742
5633 5634 5635 5636 5637 5639 5640 5642 5644 5646 5648 5650 5651 5653 5655 5657 5659 5660 5662 5664 5667 5670 5672 5675 5677 5678 5680 5683 5686 5689 5692 5696 5699 5701 5705 5708 5711 5714 5718 5721 5724 5728 5730
5619 5619 5620 5622 5623 5624 5625 5627 5628 5630 5632 5635 5637 5639 5640 5642 5644 5646 5647 5649 5651 5654 5658 5661 5662 5664 5666 5669 5671 5674 5678 5681 5684 5687 5691 5694 5697 5701 5704 5708 5711 5714 5717
5605 5605 5605 5607 5608 5609 5610 5611 5613 5615 5617 5619 5621 5624 5625 5627 5628 5630 5631 5633 5635 5638 5642 5646 5647 5649 5651 5654 5657 5660 5663 5666 5670 5673 5676 5680 5683 5687 5690 5694 5697 5701 5704
5590 5590 5591 5592 5593 5594 5595 5596 5597 5599 5601 5603 5605 5608 5610 5611 5612 5614 5615 5617 5619 5622 5625 5630 5632 5633 5635 5638 5641 5644 5648 5651 5654 5658 5661 5665 5668 5672 5675 5679 5682 5686 5690
5575 5576 5576 5577 5578 5578 5579 5580 5582 5583 5585 5587 5589 5591 5593 5595 5596 5598 5600 5602 5604 5606 5609 5613 5616 5618 5620 5623 5625 5629 5632 5635 5639 5643 5646 5649 5653 5656 5660 5664 5667 5671 5675
5561 5561 5561 5562 5562 5563 5564 5565 5566 5567 5569 5571 5573 5575 5577 5578 5580 5581 5583 5586 5588 5590 5592 5595 5599 5601 5604 5607 5609 5613 5616 5619 5623 5626 5629 5633 5637 5640 5644 5648 5652 5655 5659
5546 5546 5546 5547 5547 5548 5549 5549 5550 5551 5553 5554 5556 5558 5559 5561 5563 5564 5567 5569 5571 5574 5576 5579 5582 5585 5588 5590 5593 5596 5600 5603 5606 5609 5612 5616 5620 5623 5628 5632 5636 5640 5644
5532 5532 5532 5532 5532 5533 5533 5534 5534 5535 5536 5537 5539 5540 5542 5544 5546 5547 5550 5552 5554 5557 5559 5562 5566 5569 5571 5574 5577 5580 5583 5586 5590 5593 5595 5600 5604 5608 5611 5616 5620 5624 5628
5518 5517 5517 5517 5517 5517 5518 5518 5518 5519 5519 5520 5522 5523 5525 5527 5529 5531 5533 5535 5538 5540 5543 5546 5549 5552 5555 5558 5560 5563 5565 5569 5575 5579 5579 5583 5586 5590 5595 5600 5604 5608 5612
5503 5503 5502 5501 5501 5502 5501 5501 5501 5502 5503 5503 5505 5506 5508 5510 5511 5513 5515 5518 5520 5523 5526 5529 5532 5536 5538 5541 5543 5546 5549 5552 5557 5560 5561 5566 5570 5575 5580 5584 5588 5592 5596
5489 5487 5486 5486 5486 5486 5486 5485 5484 5485 5486 5487 5488 5489 5491 5493 5494 5496 5498 5501 5503 5506 5509 5513 5516 5519 5521 5523 5525 5528 5531 5535 5539 5542 5544 5549 5554 5559 5563 5568 5572 5577 5581
5474 5472 5471 5470 5470 5470 5469 5469 5468 5468 5469 5471 5472 5473 5474 5476 5478 5480 5482 5485 5488 5490 5492 5496 5499 5501 5504 5506 5508 5510 5514 5517 5522 5526 5529 5532 5537 5542 5547 5552 5557 5561 5565
5459 5458 5456 5455 5454 5454 5454 5453 5452 5453 5454 5455 5456 5457 5458 5460 5461 5463 5465 5468 5471 5474 5476 5479 5482 5484 5487 5489 5491 5494 5497 5500 5504 5509 5513 5516 5521 5525 5531 5537 5541 5545 5549